Location: Ariel
(45.9570°N, 122.5700°W)
Time: 05:55:00
(UTC-07:00)

NANOSAT C BR1 - Visible Passes

Search period start: 25 April 2019 00:00
Search period end: 05 May 2019 00:00
Orbit: 591 x 606 km, 97.9° (Epoch: 24 April)

Date Brightness Start Highest point End Pass type
(mag) Time Alt. Az. Time Alt. Az. Time Alt. Az.
25 Apr ? 00:49:25 10° NE 00:50:17 13° ENE 00:50:17 13° ENE visible
25 Apr ? 02:24:12 10° N 02:27:00 34° NNW 02:27:00 34° NNW visible
26 Apr ? 00:59:41 10° NE 01:01:07 17° ENE 01:01:07 17° ENE visible
26 Apr ? 02:34:57 10° N 02:37:50 31° NW 02:37:50 31° NW visible
27 Apr ? 01:10:03 10° NE 01:11:56 21° NE 01:11:56 21° NE visible
27 Apr ? 02:45:45 10° N 02:48:40 27° NW 02:48:40 27° NW visible
28 Apr ? 01:20:31 10° NNE 01:22:46 26° NE 01:22:46 26° NE visible
28 Apr ? 02:56:37 10° NNW 02:59:29 22° NW 02:59:29 22° NW visible
29 Apr ? 01:31:01 10° NNE 01:33:36 32° NE 01:33:36 32° NE visible
29 Apr ? 03:07:33 10° NNW 03:10:19 18° WNW 03:10:19 18° WNW visible
30 Apr ? 01:41:35 10° NNE 01:44:25 39° NE 01:44:25 39° NE visible
30 Apr ? 03:18:37 10° NNW 03:20:58 15° WNW 03:21:09 15° WNW visible
01 May ? 01:52:10 10° NNE 01:55:15 47° NNE 01:55:15 47° NNE visible
01 May ? 03:29:55 10° NW 03:31:27 12° WNW 03:31:58 12° WNW visible
02 May ? 02:02:48 10° N 02:06:04 52° N 02:06:04 52° N visible
03 May ? 00:39:24 10° ENE 00:40:10 12° ENE 00:40:10 12° ENE visible
03 May ? 02:13:29 10° N 02:16:53 50° NNW 02:16:53 50° NNW visible
04 May ? 00:49:27 10° NE 00:50:59 15° ENE 00:50:59 15° ENE visible
04 May ? 02:24:11 10° N 02:27:42 43° NW 02:27:42 43° NW visible
